Change the Weather History Date:

Saturday, September 24, 2011

  Actual Average Record
Temperature  
Mean Temperature 59 °F 62 °F  
Max Temperature 67 °F 75 °F 91 °F (2007)
Min Temperature 51 °F 49 °F 34 °F (2012)
Degree Days  
Heating Degree Days 6 5  
Month to date heating degree days 74 46  
Since 1 July heating degree days 74 55  
Growing Degree Days 8 (Base 50)    
Moisture  
Dew Point 49 °F    
Average Humidity 72    
Maximum Humidity 96    
Minimum Humidity 48    
Precipitation  
Precipitation 0.02 in 0.10 in 0.53 in (2000)
Month to date precipitation 1.26 2.66  
Year to date precipitation 22.59 29.94  
Sea Level Pressure  
Sea Level Pressure 29.96 in    
Wind  
Wind Speed 3 mph (ENE)    
Max Wind Speed 9 mph    
Max Gust Speed 13 mph    
Visibility 9 miles    
Events Rain    
T = Trace of Precipitation, MM = Missing Value Source: NWS Daily Summary

Daily Weather History Graph

Daily Weather History Graph

Search for Another Location

Airport or City:

Trip Planner

Search our weather history database for the weather conditions in past years. The results will help you decide how hot, cold, wet, or windy it might be!

Date:

Astronomy

Sep. 24, 2011 Rise Set
Actual Time 6:42 AM CDT 6:47 PM CDT
Civil Twilight 6:15 AM CDT 7:14 PM CDT
Nautical Twilight 5:43 AM CDT 7:45 PM CDT
Astronomical Twilight 5:11 AM CDT 8:17 PM CDT
Moon 3:17 AM CDT (9/24) 4:53 PM CDT (9/24)
Length of Visible Light 12h 58m
Length of Day
12h 04m
Waning Crescent, 11% of the Moon is Illuminated
Sep 24
Waning Crescent
Sep 27
New
Oct 3
First Quarter
Oct 11
Full
Oct 19
Last Quarter

Hourly Weather History & Observations

Time (CDT) Temp. Dew Point Humidity Pressure Visibility Wind Dir Wind Speed Gust Speed Precip Events Conditions
12:53 AM 53.1 °F 48.9 °F 86% 30.01 in 10.0 mi NE 3.5 mph - 0.00 in   Overcast
1:53 AM 52.0 °F 50.0 °F 93% 30.00 in 8.0 mi ENE 3.5 mph - 0.01 in Rain Light Rain
2:53 AM 52.0 °F 50.0 °F 93% 29.97 in 8.0 mi Calm Calm - 0.00 in   Overcast
3:53 AM 52.0 °F 50.0 °F 93% 29.96 in 7.0 mi NE 3.5 mph - N/A   Overcast
4:53 AM 52.0 °F 48.9 °F 89% 29.97 in 9.0 mi NE 3.5 mph - N/A   Overcast
5:53 AM 52.0 °F 48.9 °F 89% 29.97 in 7.0 mi Calm Calm - 0.00 in Rain Light Rain
6:53 AM 51.1 °F 48.9 °F 92% 29.99 in 7.0 mi NNE 3.5 mph - 0.01 in Rain Light Rain
7:53 AM 52.0 °F 50.0 °F 93% 30.00 in 5.0 mi Calm Calm - 0.00 in   Overcast
8:53 AM 54.0 °F 50.0 °F 86% 30.00 in 10.0 mi NNE 3.5 mph - N/A   Mostly Cloudy
9:53 AM 57.9 °F 50.0 °F 75% 29.99 in 10.0 mi NE 4.6 mph - N/A   Scattered Clouds
10:53 AM 61.0 °F 50.0 °F 67% 29.98 in 10.0 mi Variable 4.6 mph - N/A   Scattered Clouds
11:53 AM 64.0 °F 46.9 °F 54% 29.98 in 10.0 mi Variable 5.8 mph - N/A   Mostly Cloudy
12:53 PM 62.6 °F 46.4 °F 55% 29.97 in 10.0 mi Calm Calm - N/A   Mostly Cloudy
1:53 PM 64.0 °F 45.0 °F 50% 29.94 in 10.0 mi Calm Calm - N/A   Overcast
2:53 PM 64.0 °F 45.0 °F 50% 29.92 in 10.0 mi Calm Calm - N/A   Mostly Cloudy
3:53 PM 63.0 °F 45.0 °F 52% 29.91 in 10.0 mi East 5.8 mph - N/A   Overcast
4:53 PM 64.0 °F 46.0 °F 52% 29.91 in 10.0 mi Calm Calm - N/A   Overcast
5:53 PM 63.0 °F 46.0 °F 54% 29.92 in 10.0 mi NE 4.6 mph - N/A   Mostly Cloudy
6:53 PM 57.0 °F 48.0 °F 72% 29.92 in 10.0 mi Calm Calm - N/A   Partly Cloudy
7:53 PM 59.0 °F 51.1 °F 75% 29.93 in 10.0 mi SE 6.9 mph - N/A   Overcast
8:53 PM 59.0 °F 52.0 °F 78% 29.93 in 10.0 mi SE 3.5 mph - N/A   Overcast
9:53 PM 55.9 °F 53.1 °F 90% 29.93 in 10.0 mi East 4.6 mph - 0.00 in Rain Light Rain
10:30 PM 55.4 °F 53.6 °F 94% 29.94 in 8.0 mi East 5.8 mph - 0.00 in   Mostly Cloudy
10:53 PM 55.9 °F 53.1 °F 90% 29.94 in 9.0 mi East 8.1 mph - 0.00 in   Overcast
11:04 PM 55.4 °F 53.6 °F 94% 29.94 in 9.0 mi East 8.1 mph - N/A   Overcast
11:53 PM 53.1 °F 51.1 °F 93% 29.94 in 6.0 mi East 4.6 mph - N/A   Clear